User: anonymous
Location: Clinton NY
(43.0598°N, 75.3602°W)
Time: 14:09:30
(UTC-04:00)
Language:

ISS - Orbit

View from above orbital plane
View from above orbital plane
View from above satellite
View from above satellite

Ground track
Ground track

The orbit data is extracted from the following two-line orbital elements,

1 25544U 98067A   14264.54317881  .00019178  00000-0  33678-3 0  1251
2 25544 051.6466 342.0004 0002423 117.0493 021.1387 15.50536497906270
Epoch (UTC): 21 September 2014 13:02:10
Eccentricity: 0.0002423
inclination: 51.6466°
perigee height: 413 km
apogee height: 417 km
right ascension of ascending node: 342.0004°
argument of perigee: 117.0493°
revolutions per day: 15.50536497
mean anomaly at epoch: 21.1387°
orbit number at epoch: 90627

The dashed part of the orbit path shows where the satellite is in the earth's shadow,  

DLR